When you browse on this site, cookies collect data to enhance your experience and personalize the content and advertising you see.
Visit our Privacy Policy to learn more. By continuing to use the site, you agree to this use of cookies and data.
  • Em Portugal
  • Lista de países
  • Para 7 dias
  • Temperatura da água
  • Mapas de satélite
  • Mapa do tempo
  • Widgets de tempo
  • user-avatar
    Iniciar Sessão

    Previsão horária em Sopron

    Hoje, 17 Julho, Quarta-feira

    Tempo Temperatura Precipitação Vento Pressão Humidade
    00:00 +17°C° 0 mm 2 m/s 744 mmHg 78%
    01:00 +16°C° 0 mm 1 m/s 744 mmHg 78%
    02:00 +16°C° 0 mm 1 m/s 744 mmHg 79%
    03:00 +16°C° 0 mm 1 m/s 744 mmHg 80%
    04:00 +15°C° 0 mm 1 m/s 744 mmHg 82%
    05:00 +17°C° 0 mm 2 m/s 744 mmHg 76%
    06:00 +18°C° 0 mm 2 m/s 744 mmHg 70%
    07:00 +20°C° 0 mm 2 m/s 744 mmHg 64%
    08:00 +21°C° 0 mm 2 m/s 744 mmHg 60%
    09:00 +24°C° 0 mm 2 m/s 744 mmHg 56%
    10:00 +25°C° 0 mm 2 m/s 744 mmHg 52%
    11:00 +26°C° 0 mm 2 m/s 743 mmHg 50%
    12:00 +27°C° 0 mm 2 m/s 743 mmHg 48%
    13:00 +28°C° 0 mm 2 m/s 743 mmHg 46%
    14:00 +28°C° 0.1 mm 2 m/s 743 mmHg 47%
    15:00 +27°C° 0.1 mm 2 m/s 743 mmHg 49%
    16:00 +27°C° 0.1 mm 2 m/s 742 mmHg 50%
    17:00 +26°C° 0.1 mm 2 m/s 742 mmHg 56%
    18:00 +25°C° 0.1 mm 2 m/s 742 mmHg 62%
    19:00 +24°C° 0.1 mm 1 m/s 742 mmHg 67%
    20:00 +22°C° 0.3 mm 1 m/s 742 mmHg 72%
    21:00 +21°C° 0.3 mm 1 m/s 742 mmHg 77%
    22:00 +17°C° 0.3 mm 0 m/s 743 mmHg 82%
    23:00 +17°C° 0.1 mm 0 m/s 743 mmHg 83%

    Amanhã, 18 Julho, Quinta-feira

    Tempo Temperatura Precipitação Vento Pressão Humidade
    00:00 +19°C° 0.1 mm 1 m/s 743 mmHg 84%
    01:00 +19°C° 0.1 mm 1 m/s 743 mmHg 85%
    02:00 +18°C° 0.1 mm 1 m/s 743 mmHg 86%
    03:00 +18°C° 0.1 mm 1 m/s 742 mmHg 87%
    04:00 +16°C° 0.1 mm 1 m/s 742 mmHg 89%
    05:00 +18°C° 0 mm 1 m/s 742 mmHg 84%
    06:00 +20°C° 0 mm 1 m/s 743 mmHg 80%
    07:00 +21°C° 0 mm 1 m/s 743 mmHg 76%
    08:00 +22°C° 0 mm 1 m/s 743 mmHg 69%
    09:00 +24°C° 0 mm 1 m/s 743 mmHg 62%
    10:00 +26°C° 0 mm 2 m/s 743 mmHg 55%
    11:00 +27°C° 0.1 mm 1 m/s 743 mmHg 50%
    12:00 +28°C° 0.1 mm 1 m/s 743 mmHg 46%
    13:00 +29°C° 0.1 mm 1 m/s 743 mmHg 41%
    14:00 +29°C° 0.1 mm 1 m/s 742 mmHg 41%
    15:00 +29°C° 0.1 mm 1 m/s 742 mmHg 40%
    16:00 +29°C° 0.1 mm 2 m/s 742 mmHg 40%
    17:00 +27°C° 0 mm 2 m/s 742 mmHg 46%
    18:00 +26°C° 0 mm 2 m/s 742 mmHg 52%
    19:00 +25°C° 0 mm 2 m/s 742 mmHg 58%
    20:00 +23°C° 0 mm 1 m/s 743 mmHg 61%
    21:00 +22°C° 0 mm 1 m/s 743 mmHg 63%
    22:00 +21°C° 0 mm 1 m/s 744 mmHg 66%
    23:00 +21°C° 0 mm 1 m/s 744 mmHg 67%

    Depois de amanhã, 19 Julho, Sexta-feira

    Tempo Temperatura Precipitação Vento Pressão Humidade
    00:00 +20°C° 0 mm 1 m/s 744 mmHg 67%
    01:00 +20°C° 0 mm 1 m/s 744 mmHg 68%
    02:00 +19°C° 0 mm 1 m/s 744 mmHg 69%
    03:00 +19°C° 0 mm 1 m/s 744 mmHg 69%
    04:00 +19°C° 0 mm 1 m/s 744 mmHg 69%
    05:00 +20°C° 0 mm 1 m/s 744 mmHg 66%
    06:00 +22°C° 0 mm 1 m/s 745 mmHg 63%
    07:00 +23°C° 0 mm 1 m/s 745 mmHg 59%
    08:00 +25°C° 0 mm 1 m/s 745 mmHg 54%
    09:00 +27°C° 0 mm 1 m/s 745 mmHg 49%
    10:00 +28°C° 0 mm 1 m/s 745 mmHg 44%
    11:00 +29°C° 0 mm 1 m/s 745 mmHg 43%
    12:00 +30°C° 0 mm 2 m/s 745 mmHg 41%
    13:00 +30°C° 0 mm 2 m/s 744 mmHg 40%
    14:00 +30°C° 0.1 mm 2 m/s 744 mmHg 41%
    15:00 +30°C° 0.1 mm 1 m/s 744 mmHg 42%
    16:00 +30°C° 0.1 mm 1 m/s 744 mmHg 43%
    17:00 +28°C° 0 mm 1 m/s 744 mmHg 48%
    18:00 +27°C° 0 mm 1 m/s 744 mmHg 53%
    19:00 +26°C° 0 mm 1 m/s 744 mmHg 57%
    20:00 +25°C° 0.1 mm 1 m/s 744 mmHg 61%
    21:00 +23°C° 0.1 mm 1 m/s 745 mmHg 65%
    22:00 +22°C° 0.1 mm 1 m/s 745 mmHg 69%
    23:00 +22°C° 0.1 mm 1 m/s 745 mmHg 71%

    20 Julho, Sábado

    Tempo Temperatura Precipitação Vento Pressão Humidade
    00:00 +21°C° 0.1 mm 1 m/s 745 mmHg 73%
    01:00 +21°C° 0.1 mm 1 m/s 745 mmHg 76%
    02:00 +20°C° 0.1 mm 1 m/s 745 mmHg 77%
    03:00 +20°C° 0.1 mm 1 m/s 745 mmHg 79%
    04:00 +20°C° 0.1 mm 1 m/s 745 mmHg 80%
    05:00 +21°C° 0 mm 1 m/s 745 mmHg 76%
    06:00 +22°C° 0 mm 1 m/s 745 mmHg 72%
    07:00 +24°C° 0 mm 1 m/s 746 mmHg 68%
    08:00 +25°C° 0 mm 1 m/s 746 mmHg 62%
    09:00 +27°C° 0 mm 1 m/s 746 mmHg 56%
    10:00 +29°C° 0 mm 1 m/s 746 mmHg 50%
    11:00 +30°C° 0 mm 2 m/s 746 mmHg 46%
    12:00 +31°C° 0 mm 2 m/s 745 mmHg 42%
    13:00 +32°C° 0 mm 2 m/s 745 mmHg 39%
    14:00 +33°C° 0 mm 3 m/s 745 mmHg 39%
    15:00 +34°C° 0 mm 3 m/s 745 mmHg 39%
    16:00 +34°C° 0 mm 3 m/s 745 mmHg 39%
    17:00 +31°C° 0 mm 3 m/s 745 mmHg 45%
    18:00 +30°C° 0 mm 2 m/s 745 mmHg 52%
    19:00 +28°C° 0 mm 2 m/s 745 mmHg 58%
    20:00 +27°C° 0.1 mm 2 m/s 745 mmHg 63%
    21:00 +26°C° 0.1 mm 2 m/s 745 mmHg 67%
    22:00 +24°C° 0.1 mm 2 m/s 746 mmHg 72%
    23:00 +24°C° 0.3 mm 3 m/s 746 mmHg 73%

    21 Julho, Domingo

    Tempo Temperatura Precipitação Vento Pressão Humidade
    00:00 +24°C° 0.3 mm 3 m/s 746 mmHg 75%
    01:00 +22°C° 0.3 mm 3 m/s 746 mmHg 76%
    02:00 +21°C° 0.1 mm 3 m/s 746 mmHg 77%
    03:00 +21°C° 0.1 mm 2 m/s 746 mmHg 77%
    04:00 +20°C° 0.1 mm 2 m/s 746 mmHg 78%
    05:00 +21°C° 0 mm 2 m/s 746 mmHg 73%
    06:00 +24°C° 0 mm 2 m/s 746 mmHg 69%
    07:00 +25°C° 0 mm 2 m/s 747 mmHg 65%
    08:00 +27°C° 0 mm 2 m/s 747 mmHg 57%
    09:00 +29°C° 0 mm 2 m/s 747 mmHg 49%
    10:00 +31°C° 0 mm 2 m/s 747 mmHg 41%
    11:00 +32°C° 0 mm 2 m/s 747 mmHg 37%
    12:00 +34°C° 0 mm 3 m/s 747 mmHg 34%
    13:00 +35°C° 0 mm 3 m/s 747 mmHg 30%
    14:00 +35°C° 0 mm 3 m/s 747 mmHg 31%
    15:00 +35°C° 0 mm 4 m/s 747 mmHg 32%
    16:00 +35°C° 0 mm 4 m/s 747 mmHg 33%
    17:00 +33°C° 0 mm 4 m/s 747 mmHg 39%
    18:00 +30°C° 0 mm 3 m/s 747 mmHg 45%
    19:00 +29°C° 0 mm 3 m/s 747 mmHg 51%
    20:00 +27°C° 0.1 mm 3 m/s 748 mmHg 57%
    21:00 +26°C° 0.1 mm 3 m/s 748 mmHg 63%
    22:00 +24°C° 0.1 mm 3 m/s 748 mmHg 69%
    23:00 +23°C° 0 mm 4 m/s 748 mmHg 69%

    22 Julho, Segunda-feira

    Tempo Temperatura Precipitação Vento Pressão Humidade
    00:00 +23°C° 0 mm 4 m/s 748 mmHg 70%
    01:00 +23°C° 0 mm 4 m/s 749 mmHg 70%
    02:00 +22°C° 0 mm 4 m/s 749 mmHg 72%
    03:00 +22°C° 0 mm 4 m/s 748 mmHg 73%
    04:00 +21°C° 0 mm 4 m/s 748 mmHg 75%
    05:00 +22°C° 0 mm 4 m/s 749 mmHg 69%
    06:00 +23°C° 0 mm 4 m/s 749 mmHg 64%
    07:00 +25°C° 0 mm 4 m/s 749 mmHg 58%
    08:00 +27°C° 0 mm 4 m/s 749 mmHg 53%
    09:00 +28°C° 0 mm 4 m/s 749 mmHg 48%
    10:00 +29°C° 0 mm 4 m/s 749 mmHg 43%
    11:00 +30°C° 0 mm 4 m/s 749 mmHg 42%
    12:00 +30°C° 0 mm 4 m/s 749 mmHg 40%
    13:00 +31°C° 0 mm 3 m/s 748 mmHg 38%
    14:00 +31°C° 0 mm 3 m/s 748 mmHg 38%
    15:00 +32°C° 0 mm 4 m/s 748 mmHg 38%
    16:00 +32°C° 0 mm 4 m/s 747 mmHg 38%
    17:00 +29°C° 0 mm 3 m/s 747 mmHg 43%
    18:00 +28°C° 0 mm 3 m/s 747 mmHg 47%
    19:00 +27°C° 0 mm 2 m/s 747 mmHg 52%
    20:00 +25°C° 0 mm 2 m/s 747 mmHg 56%
    21:00 +24°C° 0 mm 2 m/s 748 mmHg 59%
    22:00 +21°C° 0 mm 2 m/s 748 mmHg 63%
    23:00 +21°C° 0 mm 2 m/s 748 mmHg 66%
    Mostrar mais